Weather History for Missoula, MT

Change the Weather History Date:

Thursday, April 4, 2013

  Actual Average Record
Temperature  
Mean Temperature 51 °F 44 °F  
Max Temperature 65 °F 56 °F 75 °F (1960)
Min Temperature 36 °F 31 °F 18 °F (1920)
Degree Days  
Heating Degree Days 14 22  
Month to date heating degree days 58 88  
Since 1 July heating degree days 5874 6271  
Cooling Degree Days 0 0  
Month to date cooling degree days 0 0  
Year to date cooling degree days 0 0  
Moisture  
Dew Point 37 °F    
Average Humidity 63    
Maximum Humidity 89    
Minimum Humidity 37    
Precipitation  
Precipitation T in 0.04 in 0.70 in (1897)
Month to date precipitation T 0.15  
Year to date precipitation 2.06 2.70  
Snow  
Snow 0.00 in - - ()
Month to date snowfall 0.0  
Year to date snowfall 22.6  
Since 1 July snowfall 43.7  
Snow Depth 0.00 in    
Sea Level Pressure  
Sea Level Pressure 29.92 in    
Wind  
Wind Speed 3 mph (SSE)    
Max Wind Speed 24 mph    
Max Gust Speed 29 mph    
Visibility 10 miles    
Events      
T = Trace of Precipitation, MM = Missing Value Source: NWS Daily Summary

Daily Weather History Graph

Daily Weather History Graph

Search for Another Location

Airport:

Trip Planner

Search our weather history database for the weather conditions in past years. The results will help you decide how hot, cold, wet, or windy it might be!

Date:

Astronomy

Apr. 04, 2013 Rise Set
Actual Time 7:09 AM MDT 8:10 PM MDT
Civil Twilight 6:38 AM MDT 8:41 PM MDT
Nautical Twilight 6:01 AM MDT 9:18 PM MDT
Astronomical Twilight 5:21 AM MDT 9:57 PM MDT
Moon 3:59 AM MDT (4/4) 2:13 PM MDT (4/4)
Length of Visible Light 14h 03m
Length of Day
13h 01m
Waning Crescent, 33% of the Moon is Illuminated
Apr 4
Waning Crescent
Apr 10
New
Apr 18
First Quarter
Apr 25
Full
May 2
Last Quarter

Hourly Weather History & Observations

Time (MDT) Temp. Windchill Dew Point Humidity Pressure Visibility Wind Dir Wind Speed Gust Speed Precip Events Conditions
12:53 AM 45.0 °F 42.6 °F 33.1 °F 63% 30.05 in 10.0 mi NW 4.6 mph - N/A   Clear
1:53 AM 43.0 °F - 34.0 °F 71% 30.06 in 10.0 mi Calm Calm - N/A   Clear
2:53 AM 42.1 °F - 33.1 °F 70% 30.05 in 10.0 mi Calm Calm - N/A   Clear
3:53 AM 39.0 °F - 30.9 °F 73% 30.05 in 10.0 mi Calm Calm - N/A   Clear
4:53 AM 39.0 °F - 32.0 °F 76% 30.04 in 10.0 mi Calm Calm - N/A   Clear
5:53 AM 37.0 °F 34.5 °F 30.9 °F 79% 30.04 in 10.0 mi North 3.5 mph - N/A   Clear
6:53 AM 36.0 °F - 32.0 °F 86% 30.04 in 10.0 mi Calm Calm - N/A   Overcast
7:53 AM 37.0 °F - 32.0 °F 82% 30.04 in 10.0 mi Calm Calm - N/A   Scattered Clouds
8:53 AM 43.0 °F - 35.1 °F 74% 30.03 in 10.0 mi Calm Calm - N/A   Clear
9:53 AM 44.1 °F - 35.1 °F 71% 30.02 in 10.0 mi Calm Calm - N/A   Scattered Clouds
10:53 AM 48.0 °F - 36.0 °F 63% 29.99 in 10.0 mi Calm Calm - N/A   Partly Cloudy
11:53 AM 53.1 °F - 35.1 °F 50% 29.96 in 10.0 mi SE 3.5 mph - N/A   Partly Cloudy
12:53 PM 57.9 °F - 36.0 °F 44% 29.91 in 10.0 mi SSE 3.5 mph - N/A   Mostly Cloudy
1:53 PM 60.1 °F - 36.0 °F 41% 29.86 in 10.0 mi Calm Calm - N/A   Partly Cloudy
2:53 PM 62.1 °F - 37.0 °F 39% 29.83 in 10.0 mi SSE 5.8 mph - N/A   Overcast
3:53 PM 64.0 °F - 37.0 °F 37% 29.82 in 10.0 mi West 5.8 mph - N/A   Mostly Cloudy
4:53 PM 64.0 °F - 37.0 °F 37% 29.78 in 10.0 mi South 3.5 mph - N/A   Mostly Cloudy
5:53 PM 63.0 °F - 39.0 °F 41% 29.80 in 10.0 mi West 20.7 mph 25.3 mph N/A   Overcast
6:53 PM 57.0 °F - 43.0 °F 59% 29.82 in 10.0 mi NW 11.5 mph - 0.00 in   Overcast
7:53 PM 54.0 °F - 45.0 °F 72% 29.81 in 10.0 mi SE 3.5 mph - 0.00 in   Overcast
8:53 PM 55.0 °F - 42.1 °F 62% 29.78 in 10.0 mi SSE 4.6 mph - N/A   Partly Cloudy
9:53 PM 53.1 °F - 42.1 °F 66% 29.80 in 10.0 mi Calm Calm - N/A   Scattered Clouds
10:53 PM 51.1 °F - 43.0 °F 74% 29.81 in 10.0 mi ENE 5.8 mph - N/A   Scattered Clouds
11:53 PM 48.9 °F - 41.0 °F 74% 29.79 in 10.0 mi NNE 4.6 mph - N/A   Clear